Regional Weather Roundup
Issued by NWS

Home | Current Version | Previous Version | Text Only | Print | Product List | Glossary On
Versions: 1 2 3 4 5 6 7 8 9 10 11 12 13 14 15 16 17 18 19 20 21 22 23 24 25 26 27 28 29 30 31 32 33 34 35 36 37 38 39 40 41 42 43 44 45 46 47 48 49 50
000
ASPQ40 PGUM 210412
RWRPQ
WEATHER ROUNDUP FOR THE MARIANAS AND MICRONESIA
NATIONAL WEATHER SERVICE TIYAN GU
200 PM CHST SUN SEP 21 2014

GUZ001>004-210500-
MARIANA ISLANDS-

CITY           SKY/WX    TMP DP  RH WIND       PRES   REMARKS
GUAM AIRPORT   MOSUNNY   88  77  70 N10       29.78F HX 100
ANDERSEN AFB   MOSUNNY   84  75  74 N7        29.78  HX  92
ROTA AIRPORT   PTSUNNY   82  79  89 E12       29.78F HX  93
TINIAN AP      PTSUNNY   84  79  84 E12       29.76F HX  96
SAIPAN AP      CLOUDY    84  77  79 E10       29.77F HX  94

$$

PMZ161-210500-
REPUBLIC OF PALAU-

CITY           SKY/WX    TMP DP  RH WIND       PRES   REMARKS
KOROR AP       LGT RAIN  73  72  94 SW14G22   29.88F
KOROR WSO      HVY RAIN  77  75  94 S12       29.86F VSB 1/2

$$

PMZ171>174-210500-
FEDERATED STATES OF MICRONESIA-

CITY           SKY/WX    TMP DP  RH WIND       PRES   REMARKS
YAP AIRPORT    PTSUNNY   88  79  74 E8        29.76F HX 102
CHUUK AP       PTSUNNY   90  81  74 VRB3      29.72F HX 108
POHNPEI AP     LGT RAIN  82  77  83 S5        29.74F HX  91
POHNPEI WSO    CLOUDY    82  77  83 S5        29.79S HX  91
KOSRAE AP      NOT AVBL

$$

PMZ181-210500-
REPUBLIC OF THE MARSHALL ISLANDS-

CITY           SKY/WX    TMP DP  RH WIND       PRES   REMARKS
KWAJALEIN AP   LGT RAIN  82  73  74 N6        29.77S
MAJURO AP      NOT AVBL
MAJURO WSO     PTSUNNY   82  77  83 CALM      29.72F HX  91

$$




USA.gov is the U.S. government's official web portal to all federal, state and local government web resources and services.